Location: Crescent
(42.8242°N, 73.7329°W)
Time: 20:19:44
(UTC+00:00)

SR - Pass Details

Date: 20 February 2026
Orbit: 573 x 848 km, 66.7° (Epoch: 6 March)

Event Time Altitude Azimuth Distance (km) Brightness Sun altitude
Rises 17:55:37 0° 325° (NW) 3,105 ? 35.4°
Reaches altitude 10° 17:57:55 10° 322° (NW) 2,225 ? 35.3°
Maximum altitude 18:02:57 60° 243° (WSW) 874 ? 35.0°
Drops below altitude 10° 18:08:19 10° 165° (SSE) 2,378 ? 34.7°
Sets 18:10:51 0° 161° (SSE) 3,336 ? 34.6°
